Date String (YYYY-MM-DD hh:mm:ss) UTC,Instrument flags,absolute air pressure of the measurement (hPa),sample flow rate (lpm),inlet stack bypass flow (lpm),air temperature of the measurement (°C),ambient temperature measured by the external sensor (°C),aerosol sample conditioner tube jacket temperature (°C),OPC LED temperature (°C),internal box temperature (°C),relative humidity of the measurement (%),span deviation,mass concentration of particles derived from Lorenz-Mie calculation of OPC scattering (μg/m³),mass concentration of particles derived from Lorenz-Mie calculation of OPC scattering (μg/m³),mass concentration of particles derived from Lorenz-Mie calculation of OPC scattering (μg/m³)
DateTimeUTC,F1_M11,P_M11,Q1_M11,Q2_M11,T1_M11,T2_M11,T3_M11,T4_M11,T5_M11,U1_M11,ZSPAN_M11,X0_M11,X2_M11,X1_M11
2023-05-31 02:00:00,SystemResetWarning,0826.2,5.00,000.00,029.5,028.2,000.0,037.7,031.2,18.5,0000.0,0011.51,0003.60,0002.58
2023-05-31 02:01:00,SystemResetWarning,0826.1,5.00,000.00,029.5,028.2,000.0,037.7,031.2,18.4,0000.0,0012.21,0003.62,0002.58
2023-05-31 02:02:00,SystemResetWarning,0826.2,5.00,000.00,029.5,027.6,000.0,037.7,031.1,18.2,0000.0,0012.30,0003.66,0002.60
2023-05-31 02:03:00,SystemResetWarning,0826.1,5.00,000.00,029.5,025.9,000.0,037.6,030.9,18.0,0000.0,0011.20,0003.71,0002.61
2023-05-31 02:04:00,SystemResetWarning,0826.1,5.01,000.00,029.4,025.3,000.0,037.6,030.8,17.9,0000.0,0011.53,0003.68,0002.62
2023-05-31 02:05:00,SystemResetWarning,0826.1,5.01,000.00,029.3,025.4,000.0,037.5,030.6,18.0,0000.0,0011.26,0003.69,0002.63
2023-05-31 02:06:00,SystemResetWarning,0826.1,5.01,000.00,029.2,025.8,000.0,037.5,030.6,18.0,0000.0,0011.42,0003.64,0002.62
2023-05-31 02:07:00,SystemResetWarning,0826.1,5.00,000.00,029.2,026.1,000.0,037.5,030.7,17.9,0000.0,0011.36,0003.66,0002.63
2023-05-31 02:08:00,SystemResetWarning,0826.1,5.00,000.00,029.2,026.5,000.0,037.5,030.7,17.9,0000.0,0011.44,0003.68,0002.65
2023-05-31 02:09:00,SystemResetWarning,0826.2,5.00,000.00,029.2,026.8,000.0,037.6,030.8,17.9,0000.0,0011.44,0003.69,0002.66
2023-05-31 02:10:00,SystemResetWarning,0826.1,4.99,000.00,029.2,027.0,000.0,037.6,030.8,17.8,0000.0,0011.77,0003.68,0002.68
2023-05-31 02:11:00,SystemResetWarning,0826.1,4.99,000.00,029.2,027.2,000.0,037.6,030.9,17.8,0000.0,0011.44,0003.64,0002.69
2023-05-31 02:12:00,SystemResetWarning,0826.2,5.00,000.00,029.2,027.4,000.0,037.6,030.9,17.9,0000.0,0010.97,0003.64,0002.71
2023-05-31 02:13:00,SystemResetWarning,0826.2,5.00,000.00,029.2,027.5,000.0,037.6,030.9,17.9,0000.0,0010.54,0003.63,0002.71
2023-05-31 02:14:00,SystemResetWarning,0826.2,5.00,000.00,029.2,027.6,000.0,037.6,030.9,17.8,0000.0,0010.34,0003.56,0002.70
2023-05-31 02:15:00,SystemResetWarning,0826.1,5.01,000.00,029.2,027.7,000.0,037.6,030.9,17.9,0000.0,0010.36,0003.58,0002.69
2023-05-31 02:16:00,SystemResetWarning,0826.1,4.98,000.00,029.3,027.7,000.0,037.6,030.9,18.4,0000.0,0010.43,0003.58,0002.69
2023-05-31 02:17:00,SystemResetWarning,0826.1,5.00,000.00,029.3,027.7,000.0,037.6,030.9,18.4,0000.0,0010.61,0003.60,0002.71
2023-05-31 02:18:00,SystemResetWarning,0826.1,5.00,000.00,029.3,027.8,000.0,037.6,030.9,18.1,0000.0,0011.31,0003.62,0002.71
2023-05-31 02:19:00,SystemResetWarning,0826.1,5.00,000.00,029.3,027.8,000.0,037.6,030.9,18.0,0000.0,0012.03,0003.64,0002.71
2023-05-31 02:20:00,SystemResetWarning,0826.1,5.00,000.00,029.3,027.8,000.0,037.6,030.9,17.9,0000.0,0012.55,0003.69,0002.71
2023-05-31 02:21:00,SystemResetWarning,0826.1,5.00,000.00,029.3,027.8,000.0,037.6,031.0,17.8,0000.0,0013.14,0003.74,0002.70
2023-05-31 02:22:00,SystemResetWarning,0826.1,5.01,000.00,029.3,027.9,000.0,037.6,031.0,17.7,0000.0,0013.52,0003.78,0002.70
2023-05-31 02:23:00,SystemResetWarning,0826.1,5.01,000.00,029.3,027.9,000.0,037.7,031.0,17.7,0000.0,0014.12,0003.79,0002.69
2023-05-31 02:24:00,SystemResetWarning,0826.1,5.00,000.00,029.4,028.0,000.0,037.7,031.0,17.6,0000.0,0015.09,0003.79,0002.70
2023-05-31 02:25:00,SystemResetWarning,0826.0,4.99,000.00,029.4,028.0,000.0,037.7,031.1,17.6,0000.0,0015.29,0003.77,0002.70
2023-05-31 02:26:00,SystemResetWarning,0826.0,5.00,000.00,029.4,028.1,000.0,037.7,031.1,18.0,0000.0,0015.35,0003.76,0002.71
2023-05-31 02:27:00,SystemResetWarning,0826.0,5.01,000.00,029.4,028.1,000.0,037.7,031.1,18.8,0000.0,0015.03,0003.80,0002.70
2023-05-31 02:28:00,SystemResetWarning,0826.0,5.01,000.00,029.5,028.2,000.0,037.7,031.1,18.6,0000.0,0014.89,0003.79,0002.70
2023-05-31 02:29:00,SystemResetWarning,0826.0,5.01,000.00,029.5,028.2,000.0,037.7,031.2,18.6,0000.0,0013.89,0003.80,0002.71
2023-05-31 02:30:00,SystemResetWarning,0826.1,5.00,000.00,029.5,028.2,000.0,037.8,031.2,18.8,0000.0,0013.19,0003.80,0002.71
2023-05-31 02:31:00,SystemResetWarning,0826.0,4.98,000.00,029.5,027.2,000.0,037.7,031.1,18.6,0000.0,0012.59,0003.76,0002.72
2023-05-31 02:32:00,SystemResetWarning,0826.0,5.00,000.00,029.4,025.5,000.0,037.6,030.8,18.5,0000.0,0012.18,0003.73,0002.72
2023-05-31 02:33:00,SystemResetWarning,0826.0,5.01,000.00,029.4,025.1,000.0,037.6,030.7,18.4,0000.0,0011.52,0003.75,0002.72
2023-05-31 02:34:00,SystemResetWarning,0826.0,5.00,000.00,029.3,025.3,000.0,037.6,030.6,18.6,0000.0,0011.02,0003.78,0002.72
2023-05-31 02:35:00,SystemResetWarning,0826.0,4.99,000.00,029.2,025.7,000.0,037.6,030.6,18.5,0000.0,0009.72,0003.80,0002.72
2023-05-31 02:36:00,SystemResetWarning,0826.0,5.00,000.00,029.2,026.0,000.0,037.6,030.6,18.6,0000.0,0009.62,0003.86,0002.73
2023-05-31 02:37:00,SystemResetWarning,0826.0,4.99,000.00,029.1,026.3,000.0,037.6,030.7,18.6,0000.0,0009.47,0003.88,0002.72
2023-05-31 02:38:00,SystemResetWarning,0826.0,5.00,000.00,029.1,026.6,000.0,037.5,030.7,18.7,0000.0,0009.32,0003.87,0002.73
2023-05-31 02:39:00,SystemResetWarning,0826.0,5.00,000.00,029.1,026.8,000.0,037.5,030.7,18.3,0000.0,0009.36,0003.88,0002.72
2023-05-31 02:40:00,SystemResetWarning,0825.9,5.01,000.00,029.1,027.0,000.0,037.5,030.7,18.3,0000.0,0009.12,0003.85,0002.73
2023-05-31 02:41:00,SystemResetWarning,0826.0,5.00,000.00,029.1,027.2,000.0,037.5,030.7,18.0,0000.0,0009.03,0003.85,0002.72
2023-05-31 02:42:00,SystemResetWarning,0826.0,5.00,000.00,029.1,027.3,000.0,037.5,030.8,18.1,0000.0,0009.77,0003.88,0002.73
2023-05-31 02:43:00,SystemResetWarning,0826.0,4.99,000.00,029.1,027.4,000.0,037.5,030.8,19.0,0000.0,0009.89,0003.85,0002.71
2023-05-31 02:44:00,SystemResetWarning,0825.9,5.00,000.00,029.2,027.5,000.0,037.5,030.8,19.0,0000.0,0009.73,0003.83,0002.71
2023-05-31 02:45:00,SystemResetWarning,0825.9,5.00,000.00,029.2,027.5,000.0,037.5,030.8,19.2,0000.0,0009.87,0003.80,0002.72
2023-05-31 02:46:00,SystemResetWarning,0825.9,5.00,000.00,029.2,027.5,000.0,037.5,030.8,19.1,0000.0,0010.34,0003.82,0002.72
2023-05-31 02:47:00,SystemResetWarning,0825.9,5.00,000.00,029.2,027.6,000.0,037.5,030.8,18.8,0000.0,0010.56,0003.84,0002.71
2023-05-31 02:48:00,SystemResetWarning,0825.9,5.00,000.00,029.2,027.6,000.0,037.5,030.8,18.5,0000.0,0011.00,0003.85,0002.72
2023-05-31 02:49:00,SystemResetWarning,0825.9,5.00,000.00,029.2,027.6,000.0,037.5,030.8,18.5,0000.0,0011.47,0003.86,0002.72
2023-05-31 02:50:00,SystemResetWarning,0825.9,5.00,000.00,029.2,027.6,000.0,037.5,030.8,18.5,0000.0,0011.56,0003.86,0002.71
2023-05-31 02:51:00,SystemResetWarning,0825.9,5.01,000.00,029.2,027.6,000.0,037.5,030.8,18.6,0000.0,0011.62,0003.91,0002.71
2023-05-31 02:52:00,SystemResetWarning,0825.9,5.01,000.00,029.2,027.7,000.0,037.5,030.8,18.7,0000.0,0011.60,0003.91,0002.73
2023-05-31 02:53:00,SystemResetWarning,0825.8,5.01,000.00,029.2,027.7,000.0,037.5,030.8,18.5,0000.0,0011.22,0003.87,0002.72
2023-05-31 02:54:00,SystemResetWarning,0825.9,5.00,000.00,029.2,027.7,000.0,037.6,030.8,18.6,0000.0,0010.68,0003.88,0002.71
2023-05-31 02:55:00,SystemResetWarning,0825.9,4.99,000.00,029.2,027.7,000.0,037.6,030.8,19.1,0000.0,0010.81,0003.89,0002.73
2023-05-31 02:56:00,SystemResetWarning,0825.9,4.99,000.00,029.2,027.7,000.0,037.6,030.8,19.1,0000.0,0011.34,0003.88,0002.73
2023-05-31 02:57:00,SystemResetWarning,0825.9,5.00,000.00,029.2,027.7,000.0,037.6,030.8,19.1,0000.0,0011.87,0003.89,0002.73
2023-05-31 02:58:00,SystemResetWarning,0825.9,5.01,000.00,029.2,027.7,000.0,037.6,030.8,18.9,0000.0,0011.88,0003.86,0002.72
2023-05-31 02:59:00,SystemResetWarning,0825.9,5.01,000.00,029.2,027.7,000.0,037.6,030.8,18.9,0000.0,0011.56,0003.84,0002.73
